Year,Month,Day,Hour,Minute,Value (Times are PST for temperature in C)
2020,04,23,07,54,9.30
2020,04,23,07,55,9.30
2020,04,23,07,56,9.40
2020,04,23,07,57,9.40
2020,04,23,07,58,9.40
2020,04,23,07,59,9.40
2020,04,23,08,00,9.50
2020,04,23,08,01,9.50
2020,04,23,08,02,9.60
2020,04,23,08,03,9.60
2020,04,23,08,04,9.60
2020,04,23,08,05,9.60
2020,04,23,08,06,9.70
2020,04,23,08,07,9.70
2020,04,23,08,08,9.70
2020,04,23,08,09,9.70
2020,04,23,08,10,9.70
2020,04,23,08,11,9.70
2020,04,23,08,12,9.70
2020,04,23,08,13,9.70
2020,04,23,08,14,9.70
2020,04,23,08,15,9.70
2020,04,23,08,16,9.70
2020,04,23,08,17,9.70
2020,04,23,08,18,9.80
2020,04,23,08,19,9.80
2020,04,23,08,20,9.80
2020,04,23,08,21,9.80
2020,04,23,08,22,9.80
2020,04,23,08,23,9.80
2020,04,23,08,24,9.80
2020,04,23,08,25,9.80
2020,04,23,08,26,9.80
2020,04,23,08,27,9.90
2020,04,23,08,28,9.90
2020,04,23,08,29,9.90
2020,04,23,08,30,9.90
2020,04,23,08,31,10.00
2020,04,23,08,32,10.00
2020,04,23,08,33,10.00
2020,04,23,08,34,10.10
2020,04,23,08,35,10.10
2020,04,23,08,36,10.10
2020,04,23,08,37,10.10
2020,04,23,08,38,10.10
2020,04,23,08,39,10.10
2020,04,23,08,40,10.20
2020,04,23,08,41,10.20
2020,04,23,08,42,10.30
2020,04,23,08,43,10.30
2020,04,23,08,44,10.40
2020,04,23,08,45,10.40
2020,04,23,08,46,10.40
2020,04,23,08,47,10.40
2020,04,23,08,48,10.40
2020,04,23,08,49,10.40
2020,04,23,08,50,10.50
2020,04,23,08,51,10.50
2020,04,23,08,52,10.50
2020,04,23,08,53,10.50
2020,04,23,08,54,10.50
2020,04,23,08,55,10.60
2020,04,23,08,56,10.60
2020,04,23,08,57,10.70
2020,04,23,08,58,10.80
2020,04,23,08,59,10.80
2020,04,23,09,00,10.90
2020,04,23,09,01,11.00
2020,04,23,09,02,11.00
2020,04,23,09,03,11.10
2020,04,23,09,04,11.20
2020,04,23,09,05,11.20
2020,04,23,09,06,11.30
2020,04,23,09,07,11.40
2020,04,23,09,08,11.50
2020,04,23,09,09,11.60
2020,04,23,09,10,11.60
2020,04,23,09,11,11.70
2020,04,23,09,12,11.80
2020,04,23,09,13,11.80
2020,04,23,09,14,11.90
2020,04,23,09,15,11.90
2020,04,23,09,16,12.00
2020,04,23,09,17,12.00
2020,04,23,09,18,12.10
2020,04,23,09,19,12.10
2020,04,23,09,20,12.20
2020,04,23,09,21,12.20
2020,04,23,09,22,12.20
2020,04,23,09,23,12.30
2020,04,23,09,24,12.30
2020,04,23,09,25,12.30
2020,04,23,09,26,12.40
2020,04,23,09,27,12.40
2020,04,23,09,28,12.50
2020,04,23,09,29,12.50
2020,04,23,09,30,12.40
2020,04,23,09,31,12.50
2020,04,23,09,32,12.40
2020,04,23,09,33,12.40
2020,04,23,09,34,12.50
2020,04,23,09,35,12.40
2020,04,23,09,36,12.40
2020,04,23,09,37,12.50
2020,04,23,09,38,12.50
2020,04,23,09,39,12.50
2020,04,23,09,40,12.60
2020,04,23,09,41,12.60
2020,04,23,09,42,12.60
2020,04,23,09,43,12.70
2020,04,23,09,44,12.60
2020,04,23,09,45,12.60
2020,04,23,09,46,12.50
2020,04,23,09,47,12.50
2020,04,23,09,48,12.50
2020,04,23,09,49,12.40
2020,04,23,09,50,12.40
2020,04,23,09,51,12.40
2020,04,23,09,52,12.50
2020,04,23,09,53,12.50
2020,04,23,09,54,12.60
2020,04,23,09,55,12.60
2020,04,23,09,56,12.70
2020,04,23,09,57,12.70
2020,04,23,09,58,12.70
2020,04,23,09,59,12.60
2020,04,23,10,00,12.60
2020,04,23,10,01,12.60
2020,04,23,10,02,12.60
2020,04,23,10,03,12.70
2020,04,23,10,04,12.70
2020,04,23,10,05,12.70
2020,04,23,10,06,12.70
2020,04,23,10,07,12.70
2020,04,23,10,08,12.80
2020,04,23,10,09,12.80
2020,04,23,10,10,12.80
2020,04,23,10,11,12.80
2020,04,23,10,12,12.80
2020,04,23,10,13,12.80
2020,04,23,10,14,12.80
2020,04,23,10,15,12.90
2020,04,23,10,16,12.90
2020,04,23,10,17,12.80
2020,04,23,10,18,12.80
2020,04,23,10,19,12.80
2020,04,23,10,20,12.80
2020,04,23,10,21,12.80
2020,04,23,10,22,12.80
2020,04,23,10,23,12.80
2020,04,23,10,24,12.90
2020,04,23,10,25,12.90
2020,04,23,10,26,13.00
2020,04,23,10,27,13.00
2020,04,23,10,28,13.10
2020,04,23,10,29,13.10
2020,04,23,10,30,13.10
2020,04,23,10,31,13.20
2020,04,23,10,32,13.30
2020,04,23,10,33,13.30
2020,04,23,10,34,13.30
2020,04,23,10,35,13.30
2020,04,23,10,36,13.40
2020,04,23,10,37,13.40
2020,04,23,10,38,13.30
2020,04,23,10,39,13.30
2020,04,23,10,40,13.30
2020,04,23,10,41,13.30
2020,04,23,10,42,13.30
2020,04,23,10,43,13.30
2020,04,23,10,44,13.30
2020,04,23,10,45,13.30
2020,04,23,10,46,13.30
2020,04,23,10,47,13.40
2020,04,23,10,48,13.40
2020,04,23,10,49,13.40
2020,04,23,10,50,13.50
2020,04,23,10,51,13.50
2020,04,23,10,52,13.50
2020,04,23,10,53,13.60
2020,04,23,10,54,13.60
2020,04,23,10,55,13.60
2020,04,23,10,56,13.70
2020,04,23,10,57,13.80
2020,04,23,10,58,13.90
2020,04,23,10,59,14.00
2020,04,23,11,00,14.00
2020,04,23,11,01,14.00
2020,04,23,11,02,13.90
2020,04,23,11,03,13.90
2020,04,23,11,04,13.80
2020,04,23,11,05,13.80
2020,04,23,11,06,13.80
2020,04,23,11,07,13.80
2020,04,23,11,08,13.80
2020,04,23,11,09,13.70
2020,04,23,11,10,13.70
2020,04,23,11,11,13.70
2020,04,23,11,12,13.70
2020,04,23,11,13,13.80
2020,04,23,11,14,13.80
2020,04,23,11,15,13.80
2020,04,23,11,16,13.80
2020,04,23,11,17,13.90
2020,04,23,11,18,13.90
2020,04,23,11,19,14.00
2020,04,23,11,20,14.10
2020,04,23,11,21,14.10
2020,04,23,11,22,14.10
2020,04,23,11,23,14.10
2020,04,23,11,24,14.10
2020,04,23,11,25,14.10
2020,04,23,11,26,14.20
2020,04,23,11,27,14.20
2020,04,23,11,28,14.20
2020,04,23,11,29,14.20
2020,04,23,11,30,14.20
2020,04,23,11,31,14.20
2020,04,23,11,32,14.10
2020,04,23,11,33,14.20
2020,04,23,11,34,14.20
2020,04,23,11,35,14.30
2020,04,23,11,36,14.30
2020,04,23,11,37,14.20
2020,04,23,11,38,14.20
2020,04,23,11,39,14.20
2020,04,23,11,40,14.20
2020,04,23,11,41,14.10
2020,04,23,11,42,14.20
2020,04,23,11,43,14.20
2020,04,23,11,44,14.30
2020,04,23,11,45,14.30
2020,04,23,11,46,14.40
2020,04,23,11,47,14.50
2020,04,23,11,48,14.70
2020,04,23,11,49,14.80
2020,04,23,11,50,14.90
2020,04,23,11,51,14.90
2020,04,23,11,52,14.90
2020,04,23,11,53,14.90
2020,04,23,11,54,14.80
2020,04,23,11,55,14.80
2020,04,23,11,56,14.80
2020,04,23,11,57,14.80
2020,04,23,11,58,14.80
2020,04,23,11,59,14.80
2020,04,23,12,00,14.80
2020,04,23,12,01,14.90
2020,04,23,12,02,14.90
2020,04,23,12,03,14.90
2020,04,23,12,04,14.90
2020,04,23,12,05,14.90
2020,04,23,12,06,14.90
2020,04,23,12,07,14.90
2020,04,23,12,08,14.80
2020,04,23,12,09,14.80
2020,04,23,12,10,14.80
2020,04,23,12,11,14.80
2020,04,23,12,12,14.90
2020,04,23,12,13,14.90
2020,04,23,12,14,14.90
2020,04,23,12,15,15.00
2020,04,23,12,16,15.00
2020,04,23,12,17,15.10
2020,04,23,12,18,15.20
2020,04,23,12,19,15.20
2020,04,23,12,20,15.30
2020,04,23,12,21,15.30
2020,04,23,12,22,15.30
2020,04,23,12,23,15.30
2020,04,23,12,24,15.40
2020,04,23,12,25,15.40
2020,04,23,12,26,15.50
2020,04,23,12,27,15.70
2020,04,23,12,28,15.70
2020,04,23,12,29,15.80
2020,04,23,12,30,15.90
2020,04,23,12,31,16.00
2020,04,23,12,32,16.00
2020,04,23,12,33,16.00
2020,04,23,12,34,15.80
2020,04,23,12,35,15.80
2020,04,23,12,36,15.70
2020,04,23,12,37,15.60
2020,04,23,12,38,15.50
2020,04,23,12,39,15.40
2020,04,23,12,40,15.40
2020,04,23,12,41,15.50
2020,04,23,12,42,15.60
2020,04,23,12,43,15.70
2020,04,23,12,44,15.80
2020,04,23,12,45,15.80
2020,04,23,12,46,15.90
2020,04,23,12,47,16.00
2020,04,23,12,48,16.10
2020,04,23,12,49,16.20
2020,04,23,12,50,16.40
2020,04,23,12,51,16.60
2020,04,23,12,52,16.70
2020,04,23,12,53,16.70
2020,04,23,12,54,16.60
2020,04,23,12,55,16.60
2020,04,23,12,56,16.60
2020,04,23,12,57,16.60
2020,04,23,12,58,16.40
2020,04,23,12,59,16.30
2020,04,23,13,00,16.20
2020,04,23,13,01,16.10
2020,04,23,13,02,16.00
2020,04,23,13,03,15.90
2020,04,23,13,04,15.90
2020,04,23,13,05,15.90
2020,04,23,13,06,15.90
2020,04,23,13,07,16.00
2020,04,23,13,08,16.00
2020,04,23,13,09,16.00
2020,04,23,13,10,16.10
2020,04,23,13,11,16.00
2020,04,23,13,12,16.10
2020,04,23,13,13,16.20
2020,04,23,13,14,16.40
2020,04,23,13,15,16.40
2020,04,23,13,16,16.40
2020,04,23,13,17,16.30
2020,04,23,13,18,16.30
2020,04,23,13,19,16.20
2020,04,23,13,20,16.20
2020,04,23,13,21,16.20
2020,04,23,13,22,16.10
2020,04,23,13,23,16.10
2020,04,23,13,24,16.20
2020,04,23,13,25,16.30
2020,04,23,13,26,16.40
2020,04,23,13,27,16.40
2020,04,23,13,28,16.50
2020,04,23,13,29,16.60
2020,04,23,13,30,16.70
2020,04,23,13,31,16.70
2020,04,23,13,32,16.70
2020,04,23,13,33,16.70
2020,04,23,13,34,16.80
2020,04,23,13,35,16.90
2020,04,23,13,36,17.00
2020,04,23,13,37,17.10
2020,04,23,13,38,17.20
2020,04,23,13,39,17.20
2020,04,23,13,40,17.20
2020,04,23,13,41,17.20
2020,04,23,13,42,17.20
2020,04,23,13,43,17.10
2020,04,23,13,44,17.10
2020,04,23,13,45,17.10
2020,04,23,13,46,17.00
2020,04,23,13,47,16.90
2020,04,23,13,48,16.90
2020,04,23,13,49,17.00
2020,04,23,13,50,17.00
2020,04,23,13,51,17.00
2020,04,23,13,52,16.90
2020,04,23,13,53,17.00
2020,04,23,13,54,17.00
2020,04,23,13,55,17.10
2020,04,23,13,56,17.10
2020,04,23,13,57,17.20
2020,04,23,13,58,17.20
2020,04,23,13,59,17.20
2020,04,23,14,00,17.10
2020,04,23,14,01,17.10
2020,04,23,14,02,17.10
2020,04,23,14,03,16.90
2020,04,23,14,04,16.80
2020,04,23,14,05,16.70
2020,04,23,14,06,16.60
2020,04,23,14,07,16.60
2020,04,23,14,08,16.60
2020,04,23,14,09,16.70
2020,04,23,14,10,16.70
2020,04,23,14,11,16.60
2020,04,23,14,12,16.40
2020,04,23,14,13,16.30
2020,04,23,14,14,16.30
2020,04,23,14,15,16.30
2020,04,23,14,16,16.30
2020,04,23,14,17,16.40
2020,04,23,14,18,16.60
2020,04,23,14,19,16.70
2020,04,23,14,20,16.80
2020,04,23,14,21,17.00
2020,04,23,14,22,17.10
2020,04,23,14,23,17.20
2020,04,23,14,24,17.30
2020,04,23,14,25,17.30
2020,04,23,14,26,17.30
2020,04,23,14,27,17.30
2020,04,23,14,28,17.30
2020,04,23,14,29,17.30
2020,04,23,14,30,17.40
2020,04,23,14,31,17.30
2020,04,23,14,32,17.30
2020,04,23,14,33,17.30
2020,04,23,14,34,17.30
2020,04,23,14,35,17.30
2020,04,23,14,36,17.40
2020,04,23,14,37,17.50
2020,04,23,14,38,17.50
2020,04,23,14,39,17.50
2020,04,23,14,40,17.50
2020,04,23,14,41,17.50
2020,04,23,14,42,17.40
2020,04,23,14,43,17.50
2020,04,23,14,44,17.50
2020,04,23,14,45,17.40
2020,04,23,14,46,17.40
2020,04,23,14,47,17.30
2020,04,23,14,48,17.20
2020,04,23,14,49,17.10
2020,04,23,14,50,17.00
2020,04,23,14,51,16.90
2020,04,23,14,52,16.90
2020,04,23,14,53,16.90
2020,04,23,14,54,16.80
2020,04,23,14,55,16.70
2020,04,23,14,56,16.70
2020,04,23,14,57,16.70
2020,04,23,14,58,16.70
2020,04,23,14,59,16.60
2020,04,23,15,00,16.60
2020,04,23,15,01,16.60
2020,04,23,15,02,16.60
2020,04,23,15,03,16.60
2020,04,23,15,04,16.70
2020,04,23,15,05,16.70
2020,04,23,15,06,16.80
2020,04,23,15,07,16.80
2020,04,23,15,08,16.90
2020,04,23,15,09,16.90
2020,04,23,15,10,16.90
2020,04,23,15,11,16.80
2020,04,23,15,12,16.70
2020,04,23,15,13,16.60
2020,04,23,15,14,16.60
2020,04,23,15,15,16.60
2020,04,23,15,16,16.70
2020,04,23,15,17,16.70
2020,04,23,15,18,16.70
2020,04,23,15,19,16.70
2020,04,23,15,20,16.80
2020,04,23,15,21,16.80
2020,04,23,15,22,16.80
2020,04,23,15,23,16.80
2020,04,23,15,24,16.80
2020,04,23,15,25,16.80
2020,04,23,15,26,16.80
2020,04,23,15,27,16.70
2020,04,23,15,28,16.70
2020,04,23,15,29,16.60
2020,04,23,15,30,16.60
2020,04,23,15,31,16.50
2020,04,23,15,32,16.60
2020,04,23,15,33,16.60
2020,04,23,15,34,16.60
2020,04,23,15,35,16.70
2020,04,23,15,36,16.80
2020,04,23,15,37,16.90
2020,04,23,15,38,16.90
2020,04,23,15,39,16.90
2020,04,23,15,40,16.90
2020,04,23,15,41,16.90
2020,04,23,15,42,16.90
2020,04,23,15,43,16.90
2020,04,23,15,44,16.80
2020,04,23,15,45,16.80
2020,04,23,15,46,16.80
2020,04,23,15,47,16.80
2020,04,23,15,48,16.80
2020,04,23,15,49,16.80
2020,04,23,15,50,16.80
2020,04,23,15,51,16.80
2020,04,23,15,52,16.90
2020,04,23,15,53,17.00
2020,04,23,15,54,17.10
2020,04,23,15,55,17.10
2020,04,23,15,56,17.10
2020,04,23,15,57,17.10
2020,04,23,15,58,17.00
2020,04,23,15,59,17.00
2020,04,23,16,00,16.90
2020,04,23,16,01,16.90
2020,04,23,16,02,16.90
2020,04,23,16,03,17.00
2020,04,23,16,04,17.10
2020,04,23,16,05,17.10
2020,04,23,16,06,17.20
2020,04,23,16,07,17.20
2020,04,23,16,08,17.20
2020,04,23,16,09,17.20
2020,04,23,16,10,17.20
2020,04,23,16,11,17.20
2020,04,23,16,12,17.20
2020,04,23,16,13,17.20
2020,04,23,16,14,17.10
2020,04,23,16,15,17.10
2020,04,23,16,16,17.00
2020,04,23,16,17,17.00
2020,04,23,16,18,16.90
2020,04,23,16,19,16.90
2020,04,23,16,20,16.90
2020,04,23,16,21,16.90
2020,04,23,16,22,17.00
2020,04,23,16,23,17.10
2020,04,23,16,24,17.10
2020,04,23,16,25,17.10
2020,04,23,16,26,17.10
2020,04,23,16,27,17.10
2020,04,23,16,28,17.10
2020,04,23,16,29,17.20
2020,04,23,16,30,17.20
2020,04,23,16,31,17.20
2020,04,23,16,32,17.30
2020,04,23,16,33,17.30
2020,04,23,16,34,17.30
2020,04,23,16,35,17.30
2020,04,23,16,36,17.40
2020,04,23,16,37,17.40
2020,04,23,16,38,17.40
2020,04,23,16,39,17.50
2020,04,23,16,40,17.50
2020,04,23,16,41,17.60
2020,04,23,16,42,17.60
2020,04,23,16,43,17.70
2020,04,23,16,44,17.80
2020,04,23,16,45,17.80
2020,04,23,16,46,17.80
2020,04,23,16,47,17.80
2020,04,23,16,48,17.70
2020,04,23,16,49,17.60
2020,04,23,16,50,17.60
2020,04,23,16,51,17.60
2020,04,23,16,52,17.50
2020,04,23,16,53,17.40
2020,04,23,16,54,17.30
2020,04,23,16,55,17.30
2020,04,23,16,56,17.20
2020,04,23,16,57,17.20
2020,04,23,16,58,17.20
2020,04,23,16,59,17.20
2020,04,23,17,00,17.30
2020,04,23,17,01,17.20
2020,04,23,17,02,17.20
2020,04,23,17,03,17.20
2020,04,23,17,04,17.20
2020,04,23,17,05,17.20
2020,04,23,17,06,17.30
2020,04,23,17,07,17.30
2020,04,23,17,08,17.20
2020,04,23,17,09,17.20
2020,04,23,17,10,17.20
2020,04,23,17,11,17.20
2020,04,23,17,12,17.30
2020,04,23,17,13,17.30
2020,04,23,17,14,17.30
2020,04,23,17,15,17.40
2020,04,23,17,16,17.40
2020,04,23,17,17,17.40
2020,04,23,17,18,17.40
2020,04,23,17,19,17.40
2020,04,23,17,20,17.40
2020,04,23,17,21,17.40
2020,04,23,17,22,17.30
2020,04,23,17,23,17.30
2020,04,23,17,24,17.30
2020,04,23,17,25,17.40
2020,04,23,17,26,17.40
2020,04,23,17,27,17.50
2020,04,23,17,28,17.50
2020,04,23,17,29,17.60
2020,04,23,17,30,17.60
2020,04,23,17,31,17.60
2020,04,23,17,32,17.60
2020,04,23,17,33,17.60
2020,04,23,17,34,17.60
2020,04,23,17,35,17.50
2020,04,23,17,36,17.40
2020,04,23,17,37,17.40
2020,04,23,17,38,17.30
2020,04,23,17,39,17.20
2020,04,23,17,40,17.10
2020,04,23,17,41,17.00
2020,04,23,17,42,16.90
2020,04,23,17,43,16.80
2020,04,23,17,44,16.70
2020,04,23,17,45,16.60
2020,04,23,17,46,16.60
2020,04,23,17,47,16.60
2020,04,23,17,48,16.50
2020,04,23,17,49,16.50
2020,04,23,17,50,16.50
2020,04,23,17,51,16.40
2020,04,23,17,52,16.40
2020,04,23,17,53,16.30
2020,04,23,17,54,16.30
2020,04,23,17,55,16.30
2020,04,23,17,56,16.30
2020,04,23,17,57,16.30
2020,04,23,17,58,16.40
2020,04,23,17,59,16.40
2020,04,23,18,00,16.40
2020,04,23,18,01,16.40
2020,04,23,18,02,16.40
2020,04,23,18,03,16.50
2020,04,23,18,04,16.60
2020,04,23,18,05,16.70
2020,04,23,18,06,16.80
2020,04,23,18,07,16.80
2020,04,23,18,08,16.80
2020,04,23,18,09,16.80
2020,04,23,18,10,16.80
2020,04,23,18,11,16.80
2020,04,23,18,12,16.80
2020,04,23,18,13,16.80
2020,04,23,18,14,16.70
2020,04,23,18,15,16.60
2020,04,23,18,16,16.50
2020,04,23,18,17,16.40
2020,04,23,18,18,16.30
2020,04,23,18,19,16.20
2020,04,23,18,20,16.20
2020,04,23,18,21,16.10
2020,04,23,18,22,16.10
2020,04,23,18,23,16.00
2020,04,23,18,24,16.00
2020,04,23,18,25,15.90
2020,04,23,18,26,15.90
2020,04,23,18,27,15.80
2020,04,23,18,28,15.80
2020,04,23,18,29,15.80
2020,04,23,18,30,15.80
2020,04,23,18,31,15.80
2020,04,23,18,32,15.80
2020,04,23,18,33,15.80
2020,04,23,18,34,15.80
2020,04,23,18,35,15.70
2020,04,23,18,36,15.70
2020,04,23,18,37,15.60
2020,04,23,18,38,15.60
2020,04,23,18,39,15.50
2020,04,23,18,40,15.50
2020,04,23,18,41,15.40
2020,04,23,18,42,15.40
2020,04,23,18,43,15.40
2020,04,23,18,44,15.30
2020,04,23,18,45,15.30
2020,04,23,18,46,15.30
2020,04,23,18,47,15.20
2020,04,23,18,48,15.20
2020,04,23,18,49,15.20
2020,04,23,18,50,15.10
2020,04,23,18,51,15.10
2020,04,23,18,52,15.00
2020,04,23,18,53,14.90
2020,04,23,18,54,14.90
2020,04,23,18,55,14.90
2020,04,23,18,56,14.90
2020,04,23,18,57,14.90
2020,04,23,18,58,14.80
2020,04,23,18,59,14.80
2020,04,23,19,00,14.70
2020,04,23,19,01,14.70
2020,04,23,19,02,14.70
2020,04,23,19,03,14.60
2020,04,23,19,04,14.60
2020,04,23,19,05,14.60
2020,04,23,19,06,14.50
2020,04,23,19,07,14.50
2020,04,23,19,08,14.40
2020,04,23,19,09,14.40
2020,04,23,19,10,14.40
2020,04,23,19,11,14.30
2020,04,23,19,12,14.30
2020,04,23,19,13,14.30
2020,04,23,19,14,14.30
2020,04,23,19,15,14.20
2020,04,23,19,16,14.20
2020,04,23,19,17,14.20
2020,04,23,19,18,14.20
2020,04,23,19,19,14.10
2020,04,23,19,20,14.10
2020,04,23,19,21,14.10
2020,04,23,19,22,14.10
2020,04,23,19,23,14.00
2020,04,23,19,24,14.00
2020,04,23,19,25,13.90
2020,04,23,19,26,13.90
2020,04,23,19,27,13.90
2020,04,23,19,28,13.80
2020,04,23,19,29,13.80
2020,04,23,19,30,13.80
2020,04,23,19,31,13.80
2020,04,23,19,32,13.80
2020,04,23,19,33,13.70
2020,04,23,19,34,13.70
2020,04,23,19,35,13.70
2020,04,23,19,36,13.70
2020,04,23,19,37,13.60
2020,04,23,19,38,13.60
2020,04,23,19,39,13.60
2020,04,23,19,40,13.60
2020,04,23,19,41,13.50
2020,04,23,19,42,13.50
2020,04,23,19,43,13.40
2020,04,23,19,44,13.40
2020,04,23,19,45,13.30
2020,04,23,19,46,13.30
2020,04,23,19,47,13.30
2020,04,23,19,48,13.30
2020,04,23,19,49,13.20
2020,04,23,19,50,13.20
2020,04,23,19,51,13.20
2020,04,23,19,52,13.20
2020,04,23,19,53,13.10
2020,04,23,19,54,13.10
2020,04,23,19,55,13.00
2020,04,23,19,56,13.00
2020,04,23,19,57,13.00
2020,04,23,19,58,13.00
2020,04,23,19,59,13.00
2020,04,23,20,00,13.00
2020,04,23,20,01,13.00
2020,04,23,20,02,13.00
2020,04,23,20,03,13.00
2020,04,23,20,04,13.00
2020,04,23,20,05,13.00
